GW1976 Weather Reports


time (UTC)temp
C
wind
direction
speed
KPH
gust
KPH
rain 1hr
cm
rain 24hr
cm
rain mn
cm
humidity
%
barometer
mb
20260506211532 7 137 6.4 12.9 0.03 0.56 0.36 97 1007.7
20260506210035 7 135 6.4 11.3 0.00 0.53 0.33 97 1007.3
20260506204538 7 123 6.4 14.5 0.00 0.69 0.33 96 1007.1
20260506203034 7 150 8.0 17.7 0.00 0.69 0.33 96 1006.7
20260506201531 8 137 4.8 11.3 0.00 0.69 0.33 96 1006.7
20260506200035 9 105 4.8 16.1 0.00 0.69 0.33 95 1006.7
20260506194538 11 133 6.4 14.5 0.00 0.69 0.33 94 1006.1
20260506193032 12 128 3.2 11.3 0.00 0.69 0.33 97 1006.1
20260506191532 12 47 3.2 14.5 0.00 0.69 0.33 96 1006.2
20260506190031 12 342 3.2 12.9 0.00 0.69 0.33 97 1006.2
20260506184532 12 93 3.2 16.1 0.00 0.69 0.33 97 1006.2
20260506183033 12 42 3.2 14.5 0.00 0.69 0.33 97 1006.2
20260506181531 12 41 3.2 11.3 0.03 0.69 0.33 97 1006.1
20260506180033 12 83 4.8 19.3 0.03 0.69 0.33 97 1006.3
20260506174532 12 86 4.8 14.5 0.03 0.69 0.33 97 1006.1
20260506173046 12 45 4.8 11.3 0.03 0.69 0.33 97 1006.4
20260506171535 12 20 4.8 11.3 0.00 0.66 0.30 97 1006.5
20260506170032 12 41 1.6 19.3 0.00 0.66 0.30 97 1006.7
20260506164531 12 298 1.6 14.5 0.03 0.66 0.30 97 1006.7
20260506163030 12 9 3.2 16.1 0.03 0.66 0.30 97 1006.7
20260506161532 12 34 3.2 16.1 0.03 0.66 0.30 97 1006.7
20260506160040 12 28 4.8 16.1 0.03 0.66 0.30 97 1006.8
20260506154532 12 84 3.2 14.5 0.03 0.64 0.28 97 1007.0
20260506153032 12 47 3.2 17.7 0.03 0.64 0.28 96 1006.9
20260506151531 12 61 4.8 16.1 0.03 0.64 0.28 97 1007.0
20260506150030 12 24 3.2 12.9 0.05 0.64 0.28 97 1007.0
20260506144537 11 309 3.2 11.3 0.03 0.61 0.25 97 1006.9
20260506143035 11 301 3.2 11.3 0.03 0.61 0.25 96 1006.8
20260506141532 11 319 3.2 11.3 0.05 0.61 0.25 96 1006.9
20260506140035 11 266 3.2 11.3 0.03 0.58 0.23 96 1007.0
20260506134530 11 298 1.6 4.8 0.05 0.58 0.23 95 1007.4
20260506133034 11 17 1.6 4.8 0.05 0.58 0.23 95 1007.7
20260506131544 11 0 1.6 4.8 0.05 0.56 0.20 95 1008.3
20260506130038 11 0 1.6 6.4 0.05 0.56 0.20 95 1008.1
20260506124532 11 309 1.6 6.4 0.03 0.53 0.18 94 1007.7
20260506123046 11 23 1.6 6.4 0.05 0.53 0.18 94 1007.7
20260506121531 11 79 1.6 6.4 0.03 0.51 0.15 93 1007.7
20260506120030 11 13 3.2 8.0 0.05 0.51 0.15 93 1007.7
20260506114530 11 24 1.6 9.7 0.08 0.51 0.15 93 1007.5
20260506113032 11 9 3.2 8.0 0.08 0.48 0.13 92 1008.0
20260506111529 11 9 3.2 9.7 0.08 0.46 0.10 92 1008.2
20260506110034 11 57 1.6 9.7 0.08 0.46 0.10 91 1008.2
20260506104534 11 57 3.2 8.0 0.08 0.43 0.08 90 1008.1
20260506103038 11 47 3.2 6.4 0.05 0.41 0.05 89 1007.9
20260506101533 11 47 3.2 6.4 0.03 0.38 0.03 88 1007.6
20260506100036 12 26 3.2 4.8 0.03 0.38 0.03 86 1007.6
20260506094538 12 16 1.6 6.4 0.00 0.36 0.00 82 1007.4
20260506093038 13 0 1.6 6.4 0.00 0.36 0.00 80 1007.5
20260506091533 12 51 1.6 6.4 0.00 0.36 0.00 80 1007.4
20260506090032 12 64 3.2 4.8 0.00 0.36 0.00 82 1007.6
20260506084532 12 32 3.2 11.3 0.00 0.36 0.00 85 1007.7
20260506083031 12 25 3.2 9.7 0.00 0.36 0.00 90 1007.2
20260506081534 11 342 3.2 11.3 0.00 0.36 0.00 96 1007.3
20260506073030 11 294 4.8 11.3 0.00 0.36 0.00 97 1007.7
20260506071535 11 317 4.8 11.3 0.00 0.36 0.00 97 1007.8
20260506061530 11 283 1.6 4.8 0.00 0.36 0.00 96 1008.2
20260506044530 11 202 1.6 4.8 0.00 0.36 0.00 96 1009.3
20260506043032 11 205 1.6 4.8 0.00 0.36 0.00 96 1009.6
20260506041534 12 178 3.2 6.4 0.00 0.36 0.00 96 1009.6
20260506040033 12 178 1.6 8.0 0.00 0.36 0.00 95 1009.6
20260506034530 12 198 1.6 8.0 0.03 0.36 0.36 96 1009.6
20260506033034 12 193 3.2 8.0 0.03 0.36 0.36 95 1009.7
20260506031533 12 142 1.6 6.4 0.05 0.36 0.36 95 1009.6
20260506030035 13 171 3.2 6.4 0.08 0.36 0.36 94 1009.6
20260506024544 13 149 1.6 6.4 0.10 0.33 0.33 94 1009.5
20260506023035 13 128 1.6 6.4 0.10 0.33 0.33 92 1009.5
20260506021534 14 251 0.0 6.4 0.08 0.30 0.30 90 1009.3
20260506020030 15 153 0.0 6.4 0.05 0.28 0.28 87 1009.1
20260506014536 15 51 3.2 8.0 0.00 0.23 0.23 82 1009.2
20260506013035 15 105 1.6 4.8 0.00 0.23 0.23 84 1009.3
20260506011535 14 0 0.0 3.2 0.00 0.23 0.23 87 1008.9
20260506010035 14 0 0.0 3.2 0.00 0.23 0.23 89 1008.9
20260506004531 14 316 1.6 3.2 0.00 0.23 0.23 88 1008.7
20260506003035 15 325 1.6 4.8 0.00 0.23 0.23 86 1008.6
20260506001538 14 22 1.6 9.7 0.00 0.23 0.23 87 1008.6
20260506000036 14 344 3.2 6.4 0.00 0.23 0.23 88 1008.4
20260505234535 14 34 1.6 4.8 0.03 0.23 0.23 89 1008.3
20260505233029 14 9 1.6 4.8 0.03 0.23 0.23 91 1008.3
20260505231530 13 51 1.6 4.8 0.03 0.23 0.23 92 1008.1
20260505230047 14 68 1.6 4.8 0.03 0.23 0.23 93 1008.3
20260505224529 14 9 3.2 6.4 0.00 0.20 0.20 93 1008.3
20260505223028 14 34 1.6 4.8 0.00 0.20 0.20 91 1007.9
20260505221530 14 254 1.6 4.8 0.03 0.20 0.20 91 1007.6
20260505220032 15 246 3.2 6.4 0.05 0.20 0.20 92 1007.5
20260505214533 15 298 3.2 9.7 0.08 0.20 0.20 93 1007.9
20260505213030 14 279 0.0 4.8 0.15 0.20 0.20 94 1007.8